Regional Weather Roundup
Issued by NWS

Home | Current Version | Previous Version | Graphics & Text | Print | Product List | Glossary On
Versions: 1 2 3 4 5 6 7 8 9 10 11 12 13 14 15 16 17 18 19 20 21 22 23 24 25 26 27 28 29 30 31 32 33 34 35 36 37 38 39 40 41 42 43 44 45 46 47 48 49 50
000
ASUS43 KLMK 300910
RWRKY
KENTUCKY REGIONAL WEATHER ROUNDUP
NATIONAL WEATHER SERVICE LOUISVILLE KY
500 AM EDT TUE MAY 30 2017

NOTE "FAIR" INDICATES FEW OR NO CLOUDS BELOW 12,000 FEET
WITH NO SIGNIFICANT WEATHER AND/OR OBSTRUCTIONS TO VISIBILITY.

KYZ001>023-026-027-061>063-070>075-301000-
WESTERN AND SOUTH CENTRAL KENTUCKY

CITY           SKY/WX    TMP DP  RH WIND       PRES   REMARKS
PADUCAH        PTCLDY    64  60  87 CALM      30.01R
HENDERSON      CLEAR     59  58  96 S3        30.02S
OWENSBORO      CLEAR     61  59  93 CALM      30.02S
HOPKINSVILLE   PTCLDY    66  63  90 S5        30.03S
BOWLING GREEN  LGT RAIN  67  60  78 SW5       30.04F
GLASGOW        PTCLDY    63  57  82 SW3       30.04S
$$

KYZ024-025-028>034-038-045-046-053-301000-
NORTH CENTRAL KENTUCKY

CITY           SKY/WX    TMP DP  RH WIND       PRES   REMARKS
LOUISVILLE/SDF PTCLDY    67  55  65 W10       30.01R
LOUISVILLE/LOU PTCLDY    67  56  67 W6        30.01R
FORT KNOX      MOCLDY    62  56  81 W9        30.00R
$$

KYZ035>037-039>044-047>052-055>060-089>105-301000-
NORTHEAST KENTUCKY

CITY           SKY/WX    TMP DP  RH WIND       PRES   REMARKS
LEXINGTON      CLOUDY    65  60  84 SW7       30.02R
COVINGTON      PTCLDY    62  56  80 W7        29.98R
FRANKFORT      CLEAR     64  58  80 SW6       30.00R
$$

KYZ054-064>069-076>088-106>120-301000-
SOUTHEAST KENTUCKY

CITY           SKY/WX    TMP DP  RH WIND       PRES   REMARKS
JACKSON        PTCLDY    63  60  90 CALM      30.04S
LONDON         CLOUDY    62  59  90 CALM      30.06R
SOMERSET       CLOUDY    59  59 100 CALM      30.06S FOG
MIDDLESBORO    MOCLDY    60  60 100 CALM      30.08R FOG
MONTICELLO     CLOUDY    65  63  93 VRB7G18   30.07R
$$




USA.gov is the U.S. government's official web portal to all federal, state and local government web resources and services.